Location: Grajewo
(53.6469°N, 22.4559°E)
Time: 07:19:12
(UTC+02:00)

ISS - Visible Passes

Search period start: 27 May 2018 00:00
Search period end: 06 June 2018 00:00
Orbit: 402 x 407 km, 51.6° (Epoch: 27 May)

Date Brightness Start Highest point End Pass type
(mag) Time Alt. Az. Time Alt. Az. Time Alt. Az.
27 May -3.0 00:23:41 10° W 00:26:26 31° SSW 00:26:26 31° SSW visible
27 May -3.8 21:55:04 10° WSW 21:58:18 61° S 22:01:32 10° E visible
27 May -3.4 23:31:27 10° W 23:34:35 42° SSW 23:35:43 29° SSE visible
28 May -3.7 22:39:15 10° W 22:42:27 52° SSW 22:45:05 14° ESE visible
29 May -2.1 00:15:57 10° W 00:17:42 19° SW 00:17:42 19° SW visible
29 May -3.7 21:47:02 10° W 21:50:17 59° S 21:53:31 10° ESE visible
29 May -2.8 23:23:34 10° W 23:26:27 29° SSW 23:27:06 26° S visible
30 May -3.2 22:31:15 10° W 22:34:21 38° SSW 22:36:31 17° SE visible
31 May -1.4 00:08:44 10° WSW 00:09:09 11° WSW 00:09:09 11° WSW visible
31 May -3.5 21:39:00 10° W 21:42:11 48° SSW 21:45:21 10° ESE visible
31 May -2.1 23:15:50 10° WSW 23:18:11 18° SSW 23:18:35 18° SSW visible
01 Jun -2.5 22:23:20 10° W 22:26:07 26° SSW 22:28:04 15° SSE visible
02 Jun -1.4 23:09:01 10° SW 23:09:45 11° SW 23:10:10 10° SSW visible
03 Jun -1.8 22:15:39 10° WSW 22:17:45 16° SW 22:19:41 11° S visible
